{"data":{"norad_id":59425,"epoch":"2026-05-25T02:07:30.730368Z","epoch_age_seconds":71319,"freshness":"FRESH","line1":"1 59425U 24065E   26145.08855012  .00001781  00000+0  19557-4 0  9996","line2":"2 59425  53.1591  77.1728 0001057 102.1983 257.9153 15.69709004123470","mean_motion":15.69709004,"eccentricity":0.0001057,"inclination_deg":53.1591,"raan_deg":77.1728,"arg_perigee_deg":102.1983,"mean_anomaly_deg":257.9153,"bstar":1.9557e-5,"rev_number":12347,"period_min":91.736748424742,"perigee_km":359.01740809236,"apogee_km":360.44179309172,"semimajor_km":6737.866600592,"source":"CELESTRAK","updated_at":"2026-05-25T13:38:18.944590Z"}}